Location: Bushey
(51.6333°N, 0.3667°W)
Time: 09:17:37
(UTC+00:00)

Cosmos 2084 Rocket - Visible Passes

Search period start: 16 June 2021 00:00
Search period end: 26 June 2021 00:00
Orbit: 522 x 658 km, 62.8° (Epoch: 15 June)

Date Brightness Start Highest point End Pass type
(mag) Time Alt. Az. Time Alt. Az. Time Alt. Az.
21 Jun 5.7 02:26:05 10° SE 02:27:45 12° ESE 02:29:26 10° E visible
22 Jun 5.2 02:32:30 10° SSE 02:35:24 20° ESE 02:38:21 10° ENE visible
23 Jun 4.5 02:39:37 10° S 02:43:07 31° SE 02:46:42 10° ENE visible
24 Jun 3.8 02:47:07 10° SSW 02:50:56 51° SE 02:54:49 10° NE visible
25 Jun 5.6 01:18:18 10° SE 01:20:02 13° ESE 01:21:45 10° E visible
25 Jun 3.3 02:54:51 10° SW 02:58:47 81° SE 03:02:50 10° NE visible
